Probability
100 97 81 58 26 0 0 0 0 0 0 0 0 0 0 0 0 0 0 35 58 71 87 94 94 97 97 94 90 84 87 87 87 87 84 90 94 94 87 90 74 74 74 81 77 77 87 87 90
97 90 81 26 0 0 0 0 0 0 0 0 0 0 0 3 3 3 6 61 71 74 87 90 97 97 97 94 87 87 87 90 90 87 87 87 94 90 87 81 81 77 74 71 81 71 71 77 81
97 87 65 3 0 0 0 0 0 0 0 0 0 0 0 3 3 3 10 58 65 68 81 87 87 90 90 87 90 90 90 87 87 87 87 87 90 90 90 90 87 77 74 74 71 71 65 68 77
94 68 6 3 0 0 0 0 0 0 0 0 3 0 0 0 3 6 32 52 55 55 71 74 77 77 81 87 84 84 90 90 94 90 90 87 87 90 90 90 87 81 77 74 81 77 77 68 71
81 16 0 0 0 0 0 0 0 3 3 0 0 0 0 3 10 16 29 39 32 32 55 61 71 71 68 71 68 74 68 77 84 87 84 90 90 87 94 94 90 94 84 87 87 90 81 74 71
42 0 0 0 0 0 0 0 0 0 3 0 3 3 0 0 0 10 13 23 26 35 39 48 48 65 61 61 58 55 48 58 61 74 84 81 84 81 87 87 94 97 97 90 90 90 84 77 81
45 0 0 0 0 0 0 0 0 0 0 0 3 0 0 3 0 6 10 13 13 19 23 29 29 35 48 58 55 58 52 42 48 55 68 74 74 74 77 81 87 94 97 94 90 97 84 87 87
29 0 0 0 0 0 0 3 0 0 0 0 0 0 0 0 0 3 6 6 6 10 13 13 19 23 26 23 29 42 45 35 29 39 52 52 61 61 65 71 81 81 87 90 90 90 94 94 87
13 0 0 0 0 0 0 0 0 0 0 0 0 0 0 0 3 0 0 0 3 3 3 6 6 10 13 10 16 23 19 26 29 19 19 26 13 13 26 48 74 77 84 87 87 87 90 90 90
0 0 0 0 0 0 0 0 0 0 0 0 0 0 0 3 0 0 0 0 0 0 0 0 0 0 0 0 3 3 3 6 6 3 3 3 0 0 6 19 35 52 68 71 84 87 87 87 61
13 0 0 3 0 0 0 0 0 0 0 0 0 0 0 0 0 0 0 0 0 0 0 0 0 0 0 0 0 3 3 3 3 0 0 0 0 0 3 6 6 16 29 29 45 52 42 42 23
10 6 3 3 3 0 0 0 0 0 0 0 0 0 0 0 0 0 0 0 0 0 0 0 0 0 0 0 0 0 0 0 0 3 3 0 0 0 0 0 0 0 3 16 23 23 23 26 13
6 3 3 3 0 0 0 0 0 0 0 0 0 0 3 0 0 0 0 0 0 0 0 0 0 0 0 0 0 0 0 0 0 0 0 0 0 0 0 0 0 0 0 6 3 6 10 3 3
6 13 3 0 0 0 0 0 0 0 0 0 0 0 0 0 0 0 0 0 0 0 0 0 0 0 0 0 0 0 0 0 0 0 0 0 0 0 0 0 0 0 0 0 3 0 0 0 0
3 3 0 0 0 0 0 0 0 0 0 0 0 0 0 0 0 0 0 0 0 0 0 0 0 0 0 0 0 0 0 0 0 0 0 0 0 0 0 0 0 0 0 0 0 0 0 0 0
0 0 0 0 0 0 0 0 0 0 0 0 0 0 0 0 0 0 0 0 0 0 0 0 0 0 0 0 0 0 0 0 0 0 0 0 0 0 0 0 0 0 0 0 0 0 0 0 0
0 0 0 0 0 0 0 0 0 0 0 0 0 0 0 0 0 0 0 0 0 0 0 0 0 0 0 0 0 0 0 0 0 0 0 0 0 0 0 0 0 0 0 0 0 0 0 0 0
0 0 0 0 0 0 0 0 0 0 0 0 0 0 0 0 0 0 0 0 0 0 0 0 0 0 0 0 0 0 0 0 0 0 0 0 0 0 0 0 0 0 0 0 0 0 0 0 0
0 0 0 0 0 0 0 0 0 0 0 0 0 0 0 0 0 0 0 0 0 0 0 0 0 0 0 0 0 0 0 0 0 0 0 0 0 0 0 0 0 0 0 0 0 0 0 0 0
0 0 0 0 0 0 0 0 0 0 0 0 0 0 0 0 0 0 0 0 0 0 0 0 0 0 0 0 0 0 0 0 0 0 0 0 0 0 0 0 0 0 0 0 0 0 0 0 0
0 0 0 0 0 0 0 0 0 0 0 0 0 0 0 0 0 0 0 0 0 0 0 0 0 0 0 0 0 0 0 0 0 0 0 0 0 0 0 0 0 0 0 0 0 0 0 0 0
0 0 0 0 0 0 0 0 0 0 0 0 0 0 0 0 0 0 0 0 0 0 0 0 0 0 0 0 0 0 0 0 0 0 0 0 0 0 0 0 0 0 0 0 0 0 0 0 0
0 0 0 0 0 0 0 0 0 0 0 0 0 0 0 0 0 0 0 0 0 0 0 0 0 0 0 0 0 0 0 0 0 0 0 0 0 0 0 0 0 0 0 0 0 0 0 0 0
0 0 0 0 0 0 0 0 0 0 0 0 0 0 0 0 0 0 0 0 0 0 0 0 0 0 0 0 0 0 0 0 0 0 0 0 0 0 0 0 0 0 0 0 0 0 0 0 0
0 0 0 0 0 0 0 0 0 0 0 0 0 0 0 0 0 0 0 0 0 0 0 0 0 0 0 0 0 0 0 0 0 0 0 0 0 0 0 0 0 0 0 0 0 0 0 0 0
0 0 0 0 0 0 0 0 0 0 0 0 0 0 0 0 0 0 0 0 0 0 0 0 0 0 0 0 0 0 0 0 0 0 0 0 0 0 0 0 0 0 0 0 0 0 0 0 0
0 0 0 0 0 0 0 0 0 0 0 0 0 0 0 0 0 0 0 0 0 0 0 0 0 0 0 0 0 0 0 0 0 0 0 0 0 0 0 0 0 0 0 0 0 0 0 0 0
0 0 0 0 0 0 0 0 0 0 0 0 0 0 0 0 0 0 0 0 0 0 0 0 0 0 0 0 0 0 0 0 0 0 0 0 0 0 0 0 0 0 0 0 0 0 0 0 0
0 0 0 0 0 0 0 0 0 0 0 0 0 0 0 0 0 0 0 0 0 0 0 0 0 0 0 0 0 0 0 0 0 0 0 0 0 0 0 0 0 0 0 0 0 0 0 0 0
0 0 0 0 0 0 0 0 0 0 0 0 0 0 0 0 0 0 0 0 0 0 0 0 0 0 0 0 0 0 0 0 0 0 0 0 0 0 0 0 0 0 0 0 0 0 0 0 0
Height
5915 5913 5911 5910 5908 5908 5907 5907 5906 5906 5906 5904 5903 5902 5901 5900 5900 5901 5896 5893 5892 5891 5890 5890 5889 5889 5888 5888 5888 5888 5887 5887 5887 5887 5887 5887 5887 5887 5887 5887 5887 5887 5887 5887 5887 5887 5886 5886 5885
5915 5913 5911 5909 5907 5907 5908 5906 5906 5906 5905 5904 5902 5901 5900 5898 5897 5896 5894 5891 5890 5889 5888 5888 5887 5887 5886 5886 5885 5885 5885 5885 5884 5884 5884 5884 5884 5884 5885 5885 5885 5885 5885 5885 5885 5885 5884 5884 5884
5914 5912 5910 5908 5907 5907 5907 5906 5906 5905 5904 5903 5901 5900 5898 5897 5895 5894 5892 5889 5888 5887 5886 5885 5884 5884 5883 5883 5882 5882 5882 5881 5881 5881 5881 5881 5881 5881 5881 5882 5882 5882 5882 5882 5882 5882 5882 5882 5882
5913 5912 5910 5909 5907 5907 5906 5905 5905 5904 5903 5901 5899 5898 5896 5894 5893 5891 5889 5887 5886 5884 5883 5882 5881 5880 5880 5879 5879 5878 5878 5877 5877 5877 5877 5877 5877 5877 5878 5878 5878 5879 5879 5879 5880 5880 5880 5880 5880
5912 5911 5910 5908 5907 5905 5904 5903 5903 5902 5901 5899 5898 5895 5893 5892 5890 5888 5886 5885 5883 5881 5880 5878 5877 5876 5875 5875 5874 5874 5873 5873 5873 5873 5873 5873 5873 5873 5874 5874 5874 5875 5876 5876 5876 5877 5877 5878 5878
5911 5909 5908 5907 5906 5904 5903 5902 5901 5900 5899 5897 5895 5893 5891 5889 5887 5884 5883 5881 5879 5877 5875 5873 5872 5871 5870 5869 5869 5868 5868 5867 5867 5867 5867 5868 5868 5868 5869 5870 5870 5871 5872 5872 5873 5873 5874 5875 5875
5909 5907 5906 5905 5904 5903 5902 5901 5899 5898 5896 5895 5892 5890 5887 5885 5883 5880 5878 5876 5874 5872 5870 5868 5866 5865 5864 5864 5863 5862 5862 5862 5861 5862 5862 5862 5862 5863 5864 5864 5865 5866 5867 5868 5869 5869 5870 5872 5873
5906 5906 5904 5903 5902 5901 5900 5899 5896 5895 5893 5891 5889 5887 5884 5882 5879 5876 5874 5871 5869 5866 5864 5862 5861 5859 5858 5857 5856 5855 5855 5855 5855 5855 5855 5855 5856 5856 5858 5859 5859 5860 5861 5862 5864 5865 5866 5867 5869
5904 5904 5901 5901 5899 5899 5898 5896 5894 5892 5890 5887 5885 5883 5880 5877 5874 5871 5869 5866 5863 5860 5858 5856 5854 5852 5851 5850 5849 5848 5847 5847 5847 5847 5848 5848 5849 5850 5851 5852 5853 5854 5855 5857 5858 5860 5861 5863 5865
5901 5900 5899 5898 5897 5896 5895 5893 5891 5889 5887 5884 5881 5879 5876 5873 5870 5867 5864 5861 5858 5855 5852 5850 5848 5846 5844 5843 5841 5840 5840 5839 5839 5839 5840 5841 5842 5843 5844 5845 5847 5848 5849 5851 5853 5854 5856 5858 5860
5898 5897 5895 5894 5893 5892 5891 5890 5888 5886 5884 5881 5878 5875 5872 5869 5866 5863 5860 5856 5853 5850 5847 5844 5842 5840 5838 5836 5834 5833 5832 5832 5831 5831 5832 5833 5834 5835 5837 5838 5840 5841 5843 5845 5847 5849 5851 5853 5855
5895 5893 5892 5891 5890 5889 5887 5886 5885 5883 5881 5878 5875 5871 5868 5865 5862 5859 5855 5852 5849 5846 5843 5840 5837 5834 5832 5830 5829 5827 5826 5825 5824 5823 5824 5825 5826 5827 5829 5831 5833 5834 5836 5838 5840 5842 5845 5847 5849
5892 5891 5889 5888 5886 5885 5885 5884 5882 5879 5877 5874 5871 5868 5865 5861 5858 5855 5852 5849 5846 5842 5839 5836 5833 5830 5827 5825 5823 5821 5820 5818 5817 5816 5816 5817 5818 5819 5821 5823 5825 5827 5829 5831 5834 5836 5838 5841 5844
5888 5888 5886 5885 5884 5884 5883 5881 5879 5877 5874 5871 5868 5865 5862 5859 5855 5852 5849 5846 5843 5839 5836 5833 5829 5826 5823 5820 5818 5815 5814 5812 5811 5810 5809 5810 5810 5811 5812 5814 5816 5819 5821 5824 5827 5829 5832 5834 5837
5885 5885 5884 5883 5883 5882 5881 5879 5877 5874 5871 5869 5866 5863 5860 5857 5853 5850 5847 5844 5840 5837 5833 5829 5826 5823 5819 5816 5813 5810 5808 5806 5805 5804 5803 5803 5803 5804 5805 5806 5808 5811 5813 5816 5819 5822 5825 5827 5831
5881 5882 5882 5882 5881 5880 5880 5878 5875 5872 5869 5867 5864 5861 5859 5855 5852 5849 5845 5842 5838 5834 5830 5827 5823 5819 5816 5812 5808 5805 5803 5801 5799 5798 5797 5796 5796 5797 5797 5799 5800 5802 5805 5808 5811 5814 5817 5820 5824
5879 5879 5879 5879 5878 5877 5876 5874 5873 5870 5867 5865 5862 5860 5857 5854 5851 5848 5844 5840 5836 5832 5828 5825 5821 5816 5812 5808 5805 5801 5798 5796 5794 5792 5791 5790 5789 5790 5790 5791 5793 5795 5798 5800 5804 5807 5810 5813 5817
5876 5876 5876 5876 5876 5875 5874 5872 5870 5868 5865 5863 5861 5858 5856 5853 5850 5847 5843 5839 5835 5831 5827 5823 5819 5814 5810 5805 5801 5798 5794 5791 5789 5787 5785 5784 5783 5783 5784 5785 5786 5788 5790 5793 5796 5799 5803 5806 5810
5873 5873 5873 5873 5873 5872 5870 5869 5867 5865 5863 5861 5859 5857 5855 5852 5849 5846 5842 5838 5834 5830 5826 5821 5817 5812 5808 5803 5799 5795 5791 5788 5785 5782 5780 5778 5777 5777 5777 5778 5779 5780 5782 5785 5788 5791 5795 5799 5802
5870 5871 5871 5871 5870 5869 5867 5867 5865 5863 5861 5859 5857 5856 5854 5851 5848 5845 5841 5838 5834 5830 5825 5821 5816 5811 5806 5802 5797 5793 5789 5785 5781 5778 5776 5774 5772 5771 5771 5771 5772 5774 5775 5778 5781 5784 5787 5791 5795
5867 5868 5868 5868 5867 5866 5865 5865 5864 5862 5860 5858 5856 5854 5852 5850 5847 5844 5841 5837 5834 5829 5825 5820 5815 5810 5805 5800 5796 5791 5786 5782 5779 5775 5772 5770 5768 5766 5766 5766 5766 5767 5769 5771 5774 5777 5780 5784 5788
5865 5865 5865 5865 5865 5865 5865 5864 5863 5861 5859 5857 5855 5853 5852 5850 5847 5845 5841 5838 5834 5830 5825 5820 5815 5810 5804 5799 5794 5789 5785 5780 5777 5773 5769 5766 5764 5762 5761 5761 5761 5762 5763 5765 5767 5770 5774 5777 5780
5862 5862 5863 5863 5863 5863 5863 5862 5862 5860 5858 5857 5855 5854 5852 5850 5848 5845 5841 5838 5834 5830 5825 5820 5815 5809 5804 5799 5794 5788 5784 5779 5775 5771 5767 5763 5760 5758 5757 5756 5756 5757 5758 5759 5762 5764 5767 5770 5774
5860 5860 5861 5861 5861 5862 5861 5860 5860 5858 5857 5856 5855 5854 5852 5850 5848 5845 5841 5838 5834 5830 5825 5820 5815 5809 5804 5798 5793 5788 5783 5778 5773 5769 5765 5761 5758 5755 5753 5752 5752 5752 5753 5754 5756 5758 5761 5764 5767
5858 5859 5860 5859 5859 5859 5859 5858 5859 5857 5857 5856 5855 5854 5852 5850 5848 5845 5842 5838 5834 5830 5825 5820 5815 5810 5804 5799 5793 5788 5783 5777 5772 5768 5763 5759 5756 5753 5750 5749 5748 5748 5749 5750 5751 5753 5755 5758 5761
5855 5857 5858 5858 5858 5857 5857 5856 5857 5856 5855 5855 5854 5853 5851 5850 5847 5845 5842 5838 5835 5830 5826 5821 5816 5810 5805 5799 5794 5788 5783 5777 5772 5768 5763 5758 5754 5751 5748 5746 5745 5745 5745 5746 5747 5749 5750 5753 5755
5853 5854 5855 5856 5856 5855 5855 5855 5855 5855 5854 5854 5853 5852 5851 5849 5847 5845 5842 5838 5834 5830 5826 5821 5816 5811 5806 5800 5794 5789 5783 5778 5773 5768 5763 5758 5754 5750 5747 5745 5743 5742 5742 5742 5743 5745 5746 5748 5749
5852 5852 5853 5854 5853 5853 5854 5854 5855 5854 5854 5853 5852 5851 5850 5849 5847 5844 5841 5838 5834 5830 5826 5822 5817 5812 5806 5801 5795 5790 5784 5779 5774 5769 5764 5759 5755 5751 5747 5744 5742 5741 5740 5740 5740 5741 5742 5743 5745
5850 5850 5850 5851 5852 5852 5852 5855 5854 5853 5853 5853 5852 5851 5850 5848 5846 5844 5841 5838 5834 5830 5826 5822 5817 5812 5807 5802 5796 5791 5785 5780 5775 5770 5765 5761 5756 5751 5747 5744 5741 5740 5738 5738 5737 5738 5738 5739 5740
5848 5848 5849 5850 5850 5850 5851 5855 5852 5852 5852 5852 5851 5850 5849 5847 5845 5843 5840 5837 5834 5830 5826 5822 5817 5812 5807 5802 5797 5792 5786 5781 5777 5772 5767 5762 5758 5753 5749 5745 5742 5739 5738 5736 5736 5735 5735 5735 5736
Wind_Speed
4 5 4 3 3 4 4 4 4 5 5 5 6 7 8 8 8 8 9 10 10 9 9 10 10 10 10 11 11 12 13 14 14 15 15 16 16 16 16 16 16 16 16 15 15 15 14 14 13
4 5 5 4 5 3 3 4 5 6 6 6 7 8 9 9 9 10 11 10 10 11 11 11 11 12 13 13 14 15 16 17 16 16 17 18 18 17 17 17 17 16 16 16 15 15 14 13 13
5 4 5 6 7 4 4 5 6 6 7 8 9 9 10 11 11 11 11 12 12 13 14 14 14 14 15 16 16 17 18 19 19 19 19 19 19 19 20 19 18 18 17 16 16 15 14 13 12
5 6 7 7 8 6 6 7 8 8 9 10 10 11 12 13 13 13 13 14 15 15 16 16 16 17 17 18 18 19 19 20 21 21 22 22 21 21 21 21 20 19 18 17 17 16 15 13 12
6 7 8 9 9 8 9 9 9 10 11 12 13 13 14 15 16 16 16 17 18 18 19 19 20 20 21 21 22 22 22 22 22 23 23 23 23 23 22 23 22 21 20 19 18 17 16 15 13
8 9 10 10 11 10 9 9 11 12 13 14 15 16 16 17 17 18 19 20 21 22 22 22 23 23 24 25 25 26 25 25 25 25 25 25 26 25 25 24 23 23 23 21 20 19 18 16 14
10 11 12 12 11 9 9 11 12 13 14 15 16 17 17 18 19 20 21 22 23 23 24 25 25 26 27 27 27 28 28 28 28 28 27 27 28 29 28 27 26 26 25 24 23 21 19 18 17
12 13 14 14 12 12 12 13 13 14 16 17 17 18 19 19 20 21 22 23 24 25 26 26 27 27 28 28 29 30 30 30 30 30 30 30 29 30 30 29 28 27 27 26 25 24 22 21 19
13 15 16 14 14 13 14 14 14 15 17 18 19 19 20 21 22 22 23 24 25 25 26 27 27 28 28 28 29 30 31 32 32 32 32 32 31 30 31 30 30 29 27 27 27 26 24 23 21
15 16 16 14 13 13 14 14 15 15 16 18 19 20 21 22 22 23 23 23 24 24 25 25 26 26 26 27 28 29 30 31 33 34 34 34 33 32 31 31 31 31 29 28 27 26 26 25 24
16 17 17 14 12 13 13 14 15 15 16 18 19 19 20 21 21 21 22 22 22 22 22 22 22 22 23 23 24 26 27 29 30 32 33 33 34 34 33 32 32 31 30 29 29 28 28 27 26
17 18 16 12 12 12 13 14 15 17 18 18 18 19 20 21 20 20 20 20 20 20 20 20 20 21 21 21 21 22 24 25 27 29 30 31 32 33 34 33 33 32 32 31 30 29 29 28 27
18 17 14 12 11 11 13 14 16 17 18 18 18 19 20 20 20 20 19 19 19 19 19 20 20 20 21 21 21 21 21 22 23 26 28 29 31 33 34 34 33 33 33 32 31 31 30 30 29
17 15 15 13 11 12 13 14 14 15 17 17 18 19 19 19 19 19 19 19 18 19 19 19 19 20 20 20 20 20 21 21 21 22 24 26 28 30 32 33 34 33 33 33 32 32 31 31 31
15 13 13 11 11 11 13 13 13 14 15 16 17 17 17 18 18 18 18 17 17 18 18 18 19 19 19 19 19 20 20 21 21 21 22 23 25 27 30 32 33 33 33 33 33 32 32 31 31
15 14 14 12 10 10 11 11 12 13 14 14 15 15 16 17 17 17 17 17 18 18 19 19 19 19 19 19 19 19 19 20 20 20 21 22 23 24 26 29 32 33 34 34 33 33 32 32 31
14 14 13 11 10 9 9 11 11 11 11 12 13 14 15 15 16 16 17 17 18 18 19 19 20 20 20 19 19 18 18 18 18 19 20 21 21 22 24 26 28 31 33 34 33 33 33 32 32
14 13 13 11 10 10 9 10 10 9 9 10 12 13 14 15 15 16 17 17 18 19 19 20 20 21 21 20 19 18 17 17 17 17 18 19 19 20 22 24 26 28 30 32 33 33 33 33 33
14 13 12 10 9 9 8 8 8 8 9 10 11 13 14 14 15 17 17 18 19 19 20 21 21 21 21 21 20 19 18 17 16 16 16 17 17 18 20 22 24 26 28 30 31 32 33 33 32
12 12 11 9 8 9 8 7 7 7 8 9 11 12 14 15 16 17 18 18 19 20 21 22 22 22 21 20 20 19 18 17 16 16 15 15 15 16 17 19 21 23 25 27 29 30 32 32 32
12 10 9 8 8 8 7 6 5 5 7 8 10 12 14 15 15 16 17 18 19 20 21 22 22 22 21 21 20 20 19 18 17 17 16 15 14 14 15 16 18 20 22 24 27 28 30 30 31
11 9 8 8 7 7 6 4 3 3 6 8 10 12 13 13 14 15 16 17 19 20 21 22 23 23 22 22 21 21 20 19 18 17 17 15 14 12 13 14 15 18 20 22 24 26 27 28 29
9 8 8 8 7 6 4 2 2 3 5 7 9 10 11 12 13 15 16 17 19 20 21 22 23 23 23 22 22 21 20 20 19 18 17 16 14 12 12 12 13 14 17 19 22 24 26 28 29
9 8 8 7 6 5 4 1 2 3 5 6 7 8 9 11 12 14 16 17 18 20 21 23 23 24 24 23 23 22 21 21 20 19 18 16 15 13 11 11 12 12 14 16 19 21 23 25 28
9 9 9 7 7 6 4 1 2 3 4 4 5 7 9 10 12 13 15 17 18 19 21 23 23 24 24 24 23 23 22 22 21 20 19 17 16 14 12 10 10 10 11 13 15 18 20 23 25
9 9 9 8 8 7 4 2 1 1 2 3 5 6 8 9 11 13 14 16 18 19 21 22 23 24 24 24 24 23 23 22 22 21 20 18 17 15 12 10 9 8 10 11 14 15 18 21 23
7 7 7 8 8 7 5 3 2 1 1 2 4 5 7 9 11 12 14 15 17 19 20 21 23 23 24 24 24 24 23 23 22 21 21 20 18 16 14 11 9 7 7 9 11 13 16 18 21
6 7 7 7 7 6 5 4 3 2 1 1 3 4 6 8 10 12 13 15 16 18 19 20 22 23 23 24 24 24 24 23 22 21 21 21 19 18 16 13 10 8 6 6 8 10 12 15 18
7 7 7 7 7 6 5 4 3 3 2 1 1 3 5 7 9 11 13 14 16 17 19 20 21 22 23 24 24 24 23 22 22 22 21 21 20 19 17 15 12 9 7 6 7 8 9 12 15
8 8 8 8 7 7 5 4 4 3 3 1 1 3 5 7 9 11 13 14 16 17 18 19 20 22 23 23 23 24 23 22 22 22 21 21 20 19 18 16 14 12 9 7 7 7 7 9 11
Wind_Direction
351 356 355 0 30 46 45 33 18 10 7 350 343 339 333 329 328 323 316 309 306 306 306 304 300 294 288 281 275 272 271 266 264 262 262 264 265 265 264 265 268 269 269 272 275 278 280 280 281
337 347 341 330 355 16 17 9 12 2 351 339 333 328 323 318 314 311 306 304 305 303 299 296 291 287 283 279 275 272 271 268 263 261 262 263 264 264 264 266 266 267 268 270 273 276 277 277 278
326 320 309 319 326 341 355 353 356 348 339 333 328 322 318 313 308 306 301 301 302 299 295 290 285 282 280 277 275 274 273 269 264 261 263 263 262 262 263 265 265 265 267 269 271 272 273 273 274
310 300 302 313 318 329 336 340 344 338 331 324 320 317 314 310 306 303 299 296 295 293 290 286 283 280 277 276 274 272 272 270 266 263 262 262 260 261 262 263 263 263 264 266 268 269 268 268 269
295 293 301 304 308 319 327 329 331 326 325 319 316 313 311 308 303 300 296 292 289 287 285 283 281 280 275 274 272 270 269 268 266 264 263 262 260 259 261 261 262 261 262 262 263 263 264 263 265
286 290 291 295 302 305 318 323 323 319 319 316 313 311 308 306 302 299 296 293 290 287 284 281 280 278 276 274 271 269 269 266 264 263 261 260 259 258 259 261 260 260 261 260 259 258 259 260 261
275 282 287 294 299 307 321 323 321 318 318 314 312 309 309 306 303 301 297 294 292 289 285 282 280 279 277 275 272 268 266 265 264 262 260 260 259 257 258 259 259 258 258 259 256 256 255 256 257
274 280 283 290 292 305 317 317 318 320 318 315 312 311 309 307 304 301 298 295 293 290 288 285 282 280 278 275 272 269 267 265 263 262 260 260 260 257 255 257 258 257 257 255 254 254 254 254 253
269 274 277 282 291 302 314 316 318 321 318 317 315 313 310 309 307 304 302 299 297 295 294 291 287 283 279 276 273 270 267 265 262 260 259 259 258 257 255 256 257 256 257 255 252 252 252 250 250
269 274 276 279 289 302 310 315 318 319 318 316 316 315 314 313 311 308 306 304 302 300 298 295 291 287 284 280 276 272 269 266 263 261 259 257 257 257 256 255 256 254 254 254 251 249 248 247 247
268 276 277 277 289 303 307 313 318 320 319 320 321 321 321 319 316 313 312 311 310 308 305 303 300 295 290 286 282 278 274 269 266 263 261 259 256 255 255 254 254 254 252 250 250 248 247 247 246
267 274 277 281 293 303 310 314 318 321 324 325 327 328 327 325 323 321 320 319 318 317 314 311 308 304 300 295 289 285 280 274 269 265 262 259 256 255 253 253 252 252 251 249 248 248 245 245 244
265 273 280 286 293 302 311 316 320 323 327 329 332 333 333 332 332 330 329 327 325 322 319 316 313 309 306 301 296 291 286 280 274 269 265 261 257 254 253 252 251 250 249 247 246 246 245 245 243
269 276 284 293 298 308 312 319 323 325 330 333 335 337 337 338 338 337 335 334 331 327 324 322 318 314 311 306 301 296 291 286 281 274 269 264 259 255 251 250 249 249 247 246 245 245 245 245 242
267 277 282 296 306 308 312 317 324 327 331 334 338 342 344 343 342 341 342 341 340 338 335 332 327 322 318 312 306 299 294 290 286 280 274 268 262 257 252 249 248 246 245 244 243 245 243 243 242
263 273 284 296 301 302 307 318 325 326 331 339 344 349 351 349 348 348 349 348 345 344 342 339 335 331 325 320 314 308 302 296 291 285 278 273 267 260 255 250 247 245 244 243 242 243 242 241 240
264 274 283 290 297 305 313 320 325 330 338 347 354 359 359 358 357 356 355 352 350 349 347 344 342 339 336 331 325 318 313 306 298 290 282 276 270 264 258 253 249 246 244 243 241 241 240 238 238
263 273 281 289 297 304 313 320 326 336 346 355 1 5 5 3 3 1 0 359 357 354 351 348 345 344 343 340 335 329 324 317 308 300 290 282 275 268 260 255 251 248 245 243 240 239 239 238 238
261 267 275 285 296 309 322 329 333 345 352 0 7 10 9 7 5 4 4 3 2 359 356 353 350 347 346 345 343 339 335 330 322 312 302 292 283 273 264 258 253 249 246 242 240 239 238 237 237
257 261 268 284 301 314 324 334 342 351 2 10 12 12 10 8 7 6 6 6 4 2 0 358 355 353 351 350 349 346 343 340 334 326 315 303 292 281 270 261 255 251 247 242 239 237 238 238 237
252 261 268 285 302 312 320 331 339 357 11 17 17 16 13 10 8 7 7 6 5 3 3 2 360 358 356 354 352 349 347 344 340 335 329 318 303 289 277 267 258 253 249 244 239 237 236 236 235
248 260 269 280 286 293 297 313 345 8 20 25 22 18 13 9 8 8 7 6 4 4 4 2 1 1 360 358 356 354 352 348 344 340 335 329 318 300 284 272 264 255 250 245 241 239 236 236 235
247 259 264 265 265 269 277 307 34 39 35 30 24 16 12 11 10 9 8 6 6 6 5 4 3 3 2 1 0 359 356 353 349 345 342 337 328 315 297 280 270 260 252 246 241 239 237 236 234
246 253 260 257 252 247 251 243 70 57 41 33 25 18 15 13 11 10 9 8 7 7 5 5 5 5 4 3 2 1 359 357 355 352 349 346 339 328 314 295 277 266 255 247 242 239 238 235 234
244 250 255 249 243 235 234 187 92 56 44 42 32 22 17 14 10 8 7 7 7 6 6 6 6 6 6 6 5 4 3 2 360 357 354 351 347 339 327 311 290 272 260 251 244 241 239 236 234
239 246 248 245 240 236 227 185 144 57 50 45 34 24 17 11 7 5 5 5 6 6 6 7 7 7 8 8 7 7 6 5 5 4 2 0 357 351 342 327 307 284 267 256 249 245 242 239 237
240 245 240 239 239 238 226 203 185 169 72 46 32 18 10 6 4 3 3 4 5 5 6 7 8 8 9 10 10 10 9 8 8 8 7 6 4 3 358 346 333 311 283 262 254 251 247 242 239
234 234 231 233 237 233 224 212 203 196 148 52 14 4 0 359 0 2 3 4 4 4 5 6 6 7 9 10 10 10 10 11 10 10 12 12 10 7 5 1 353 340 316 285 266 260 252 246 242
227 228 230 232 233 234 224 210 204 190 178 181 347 354 355 357 359 1 2 1 0 0 1 3 4 5 7 8 9 9 10 11 12 13 12 12 12 11 10 7 2 351 337 316 291 275 259 249 246
227 223 224 228 234 242 237 214 210 194 187 199 328 353 355 358 358 358 358 357 356 356 357 359 1 2 5 6 7 9 9 10 11 12 12 12 12 13 13 11 9 5 353 339 322 297 271 257 252